| time (UTC) | temp F | wind direction | speed MPH | gust MPH | rain 1hr in | rain 24hr in | rain mn in | humidity % | barometer mb |
| 20260906011525 | 82 | 152 | 5.0 | 7.0 | 0.00 | 0.00 | 0.00 | 23 | 1004.1 |
| 20260906010021 | 83 | 203 | 5.0 | 6.0 | 0.00 | 0.00 | 0.00 | 22 | 1004.0 |
| 20260906004519 | 85 | 143 | 5.0 | 11.0 | 0.00 | 0.00 | 0.00 | 20 | 1003.9 |
| 20260906003020 | 87 | 166 | 5.0 | 11.0 | 0.00 | 0.00 | 0.00 | 19 | 1003.8 |
| 20260906001515 | 89 | 159 | 9.0 | 14.0 | 0.00 | 0.00 | 0.00 | 18 | 1003.7 |
| 20260906000117 | 88 | 157 | 7.0 | 10.0 | 0.00 | 0.00 | 0.00 | 19 | 1003.8 |
| 20260905234515 | 89 | 166 | 5.0 | 11.0 | 0.00 | 0.00 | 0.00 | 18 | 1003.8 |
| 20260905233012 | 87 | 195 | 4.0 | 9.0 | 0.00 | 0.00 | 0.00 | 19 | 1003.7 |
| 20260905231510 | 89 | 182 | 6.0 | 13.0 | 0.00 | 0.00 | 0.00 | 18 | 1003.7 |
| 20260905230009 | 90 | 138 | 8.0 | 12.0 | 0.00 | 0.00 | 0.00 | 18 | 1003.6 |
| 20260905224516 | 88 | 178 | 5.0 | 15.0 | 0.00 | 0.00 | 0.00 | 18 | 1003.7 |
| 20260905223007 | 90 | 163 | 8.0 | 18.0 | 0.00 | 0.00 | 0.00 | 17 | 1003.8 |
| 20260905221509 | 88 | 203 | 5.0 | 12.0 | 0.00 | 0.00 | 0.00 | 18 | 1004.0 |
| 20260905220003 | 88 | 223 | 5.0 | 16.0 | 0.00 | 0.00 | 0.00 | 18 | 1004.1 |
| 20260905214503 | 88 | 152 | 9.0 | 15.0 | 0.00 | 0.00 | 0.00 | 19 | 1004.1 |
| 20260905213002 | 87 | 210 | 7.0 | 15.0 | 0.00 | 0.00 | 0.00 | 20 | 1004.4 |
| 20260905211559 | 87 | 234 | 7.0 | 16.0 | 0.00 | 0.00 | 0.00 | 19 | 1004.4 |
| 20260905210059 | 88 | 197 | 5.0 | 26.0 | 0.00 | 0.00 | 0.00 | 18 | 1004.6 |
| 20260905204557 | 88 | 221 | 5.0 | 17.0 | 0.00 | 0.00 | 0.00 | 18 | 1004.7 |
| 20260905203059 | 89 | 320 | 6.0 | 20.0 | 0.00 | 0.00 | 0.00 | 17 | 1004.6 |
| 20260905201607 | 88 | 272 | 4.0 | 10.0 | 0.00 | 0.00 | 0.00 | 18 | 1004.9 |
| 20260905200055 | 87 | 162 | 8.0 | 16.0 | 0.00 | 0.00 | 0.00 | 18 | 1004.9 |
| 20260905194553 | 88 | 243 | 10.0 | 15.0 | 0.00 | 0.00 | 0.00 | 18 | 1005.0 |
| 20260905193050 | 88 | 257 | 11.0 | 17.0 | 0.00 | 0.00 | 0.00 | 20 | 1005.2 |
| 20260905191550 | 87 | 340 | 5.0 | 15.0 | 0.00 | 0.00 | 0.00 | 20 | 1005.1 |
| 20260905190059 | 86 | 239 | 8.0 | 15.0 | 0.00 | 0.00 | 0.00 | 21 | 1005.4 |
| 20260905184555 | 85 | 248 | 10.0 | 14.0 | 0.00 | 0.00 | 0.00 | 22 | 1005.4 |
| 20260905183039 | 84 | 231 | 8.0 | 15.0 | 0.00 | 0.00 | 0.00 | 22 | 1005.5 |
| 20260905181531 | 83 | 262 | 6.0 | 13.0 | 0.00 | 0.00 | 0.00 | 23 | 1005.7 |
| 20260905180031 | 82 | 338 | 3.0 | 9.0 | 0.00 | 0.00 | 0.00 | 24 | 1005.9 |
| 20260905174534 | 81 | 223 | 4.0 | 9.0 | 0.00 | 0.00 | 0.00 | 24 | 1006.0 |
| 20260905173030 | 79 | 70 | 4.0 | 10.0 | 0.00 | 0.00 | 0.00 | 26 | 1006.2 |
| 20260905171515 | 78 | 44 | 3.0 | 7.0 | 0.00 | 0.00 | 0.00 | 27 | 1006.2 |
| 20260905170013 | 77 | 23 | 4.0 | 12.0 | 0.00 | 0.00 | 0.00 | 27 | 1006.2 |
| 20260905164510 | 76 | 262 | 7.0 | 10.0 | 0.00 | 0.00 | 0.00 | 28 | 1006.0 |
| 20260905163007 | 76 | 258 | 8.0 | 11.0 | 0.00 | 0.00 | 0.00 | 28 | 1005.9 |
| 20260905161535 | 76 | 306 | 5.0 | 9.0 | 0.00 | 0.00 | 0.00 | 28 | 1005.8 |
| 20260905160035 | 75 | 277 | 5.0 | 10.0 | 0.00 | 0.00 | 0.00 | 29 | 1005.8 |
| 20260905154530 | 75 | 323 | 7.0 | 11.0 | 0.00 | 0.00 | 0.00 | 30 | 1005.8 |
| 20260905153026 | 74 | 308 | 7.0 | 11.0 | 0.00 | 0.00 | 0.00 | 30 | 1005.7 |
| 20260905151524 | 73 | 356 | 5.0 | 10.0 | 0.00 | 0.00 | 0.00 | 31 | 1005.7 |
| 20260905150021 | 72 | 314 | 5.0 | 8.0 | 0.00 | 0.00 | 0.00 | 32 | 1005.6 |
| 20260905144619 | 72 | 325 | 4.0 | 7.0 | 0.00 | 0.00 | 0.00 | 31 | 1005.5 |
| 20260905143047 | 71 | 13 | 3.0 | 6.0 | 0.00 | 0.00 | 0.00 | 32 | 1005.6 |
| 20260905141548 | 70 | 336 | 2.0 | 7.0 | 0.00 | 0.00 | 0.00 | 33 | 1005.5 |
| 20260905140015 | 71 | 300 | 2.0 | 4.0 | 0.00 | 0.00 | 0.00 | 32 | 1005.6 |
| 20260905134511 | 69 | 295 | 1.0 | 3.0 | 0.00 | 0.00 | 0.00 | 34 | 1005.6 |
| 20260905133007 | 67 | 23 | 2.0 | 4.0 | 0.00 | 0.00 | 0.00 | 35 | 1005.4 |
| 20260905131513 | 67 | 89 | 2.0 | 4.0 | 0.00 | 0.00 | 0.00 | 36 | 1005.3 |
| 20260905130006 | 65 | 46 | 1.0 | 6.0 | 0.00 | 0.00 | 0.00 | 37 | 1005.2 |
| 20260905124504 | 62 | 206 | 2.0 | 5.0 | 0.00 | 0.00 | 0.00 | 43 | 1004.9 |
| 20260905123110 | 60 | 191 | 5.0 | 6.0 | 0.00 | 0.00 | 0.00 | 44 | 1004.6 |
| 20260905121556 | 65 | 199 | 4.0 | 7.0 | 0.00 | 0.00 | 0.00 | 37 | 1004.4 |
| 20260905120056 | 67 | 234 | 7.0 | 11.0 | 0.00 | 0.00 | 0.00 | 35 | 1004.4 |
| 20260905114557 | 68 | 240 | 8.0 | 10.0 | 0.00 | 0.00 | 0.00 | 35 | 1004.4 |
| 20260905113025 | 69 | 234 | 7.0 | 13.0 | 0.00 | 0.00 | 0.00 | 34 | 1004.3 |
| 20260905111527 | 69 | 226 | 8.0 | 12.0 | 0.00 | 0.00 | 0.00 | 33 | 1004.2 |
| 20260905110020 | 69 | 229 | 9.0 | 13.0 | 0.00 | 0.00 | 0.00 | 33 | 1004.2 |
| 20260905104520 | 70 | 231 | 9.0 | 12.0 | 0.00 | 0.00 | 0.00 | 33 | 1004.2 |
| 20260905103028 | 66 | 230 | 6.0 | 10.0 | 0.00 | 0.00 | 0.00 | 37 | 1004.2 |
| 20260905101525 | 63 | 206 | 4.0 | 7.0 | 0.00 | 0.00 | 0.00 | 40 | 1004.2 |
| 20260905100013 | 64 | 185 | 4.0 | 7.0 | 0.00 | 0.00 | 0.00 | 38 | 1004.2 |
| 20260905094512 | 65 | 212 | 4.0 | 6.0 | 0.00 | 0.00 | 0.00 | 38 | 1004.0 |
| 20260905093011 | 64 | 185 | 4.0 | 6.0 | 0.00 | 0.00 | 0.00 | 38 | 1004.0 |
| 20260905091511 | 63 | 196 | 4.0 | 7.0 | 0.00 | 0.00 | 0.00 | 41 | 1003.9 |
| 20260905090041 | 63 | 207 | 6.0 | 9.0 | 0.00 | 0.00 | 0.00 | 39 | 1003.9 |
| 20260905084558 | 63 | 191 | 6.0 | 8.0 | 0.00 | 0.00 | 0.00 | 39 | 1003.8 |
| 20260905083033 | 64 | 195 | 6.0 | 8.0 | 0.00 | 0.00 | 0.00 | 37 | 1003.8 |
| 20260905081533 | 65 | 196 | 6.0 | 8.0 | 0.00 | 0.00 | 0.00 | 36 | 1003.8 |
| 20260905080032 | 66 | 191 | 6.0 | 8.0 | 0.00 | 0.00 | 0.00 | 35 | 1003.9 |
| 20260905074533 | 66 | 207 | 6.0 | 8.0 | 0.00 | 0.00 | 0.00 | 35 | 1003.9 |
| 20260905073028 | 67 | 193 | 6.0 | 9.0 | 0.00 | 0.00 | 0.00 | 34 | 1003.9 |
| 20260905071527 | 65 | 210 | 6.0 | 8.0 | 0.00 | 0.00 | 0.00 | 36 | 1003.8 |
| 20260905070026 | 65 | 201 | 6.0 | 7.0 | 0.00 | 0.00 | 0.00 | 35 | 1003.9 |
| 20260905064529 | 66 | 152 | 2.0 | 4.0 | 0.00 | 0.00 | 0.00 | 34 | 1003.9 |
| 20260905063023 | 66 | 148 | 3.0 | 5.0 | 0.00 | 0.00 | 0.00 | 34 | 1003.9 |
| 20260905061523 | 66 | 162 | 4.0 | 8.0 | 0.00 | 0.00 | 0.00 | 34 | 1003.9 |
| 20260905060019 | 66 | 164 | 5.0 | 10.0 | 0.00 | 0.00 | 0.00 | 34 | 1003.8 |
| 20260905054515 | 64 | 193 | 5.0 | 8.0 | 0.00 | 0.00 | 0.00 | 37 | 1003.6 |
| 20260905053012 | 64 | 192 | 6.0 | 9.0 | 0.00 | 0.00 | 0.00 | 37 | 1003.4 |
| 20260905051525 | 65 | 195 | 6.0 | 8.0 | 0.00 | 0.00 | 0.00 | 36 | 1003.4 |
| 20260905050011 | 65 | 198 | 5.0 | 7.0 | 0.00 | 0.00 | 0.00 | 36 | 1003.4 |
| 20260905044512 | 69 | 186 | 4.0 | 8.0 | 0.00 | 0.00 | 0.00 | 32 | 1003.3 |
| 20260905043009 | 70 | 208 | 6.0 | 8.0 | 0.00 | 0.00 | 0.00 | 29 | 1003.3 |
| 20260905041507 | 73 | 227 | 8.0 | 11.0 | 0.00 | 0.00 | 0.00 | 26 | 1003.2 |
| 20260905040006 | 73 | 231 | 8.0 | 11.0 | 0.00 | 0.00 | 0.00 | 27 | 1003.0 |
| 20260905034513 | 74 | 239 | 8.0 | 11.0 | 0.00 | 0.00 | 0.00 | 27 | 1003.0 |
| 20260905033001 | 69 | 203 | 5.0 | 7.0 | 0.00 | 0.00 | 0.00 | 31 | 1002.9 |
| 20260905031502 | 67 | 220 | 4.0 | 7.0 | 0.00 | 0.00 | 0.00 | 32 | 1002.8 |
| 20260905030106 | 67 | 195 | 4.0 | 5.0 | 0.00 | 0.00 | 0.00 | 32 | 1002.9 |
| 20260905024637 | 68 | 201 | 5.0 | 6.0 | 0.00 | 0.00 | 0.00 | 32 | 1002.8 |
| 20260905023100 | 68 | 183 | 3.0 | 5.0 | 0.00 | 0.00 | 0.00 | 34 | 1002.7 |
| 20260905021558 | 71 | 201 | 4.0 | 6.0 | 0.00 | 0.00 | 0.00 | 29 | 1002.5 |
| 20260905020055 | 73 | 191 | 4.0 | 6.0 | 0.00 | 0.00 | 0.00 | 26 | 1002.4 |
| 20260905014557 | 75 | 186 | 4.0 | 5.0 | 0.00 | 0.00 | 0.00 | 25 | 1002.3 |
| 20260905013055 | 79 | 218 | 3.0 | 6.0 | 0.00 | 0.00 | 0.00 | 22 | 1002.1 |